HULIANWANG DIGUI-161

Last updated on Sun Apr 12 2026 00:02:06 GMT+0000 (Coordinated Universal Time)

1 68135U 26047G 26100.82580144 -.00000036 00000+0 11150-3 0 9993 2 68135 50.0153 301.3919 0002855 206.1728 153.9019 13.73060534 4050
UTC large
Height (km)
Speed (km/s)
/
Latitude / Longitude
Inclination (degrees)
Orbital Period (minutes)
Azimuth
Elevation
Range (km)
Doppler Factor

Next 0 passes for location: London (51.5072 / 0.1276)

Sorry there are no passes over London.
HULIANWANG DIGUI-161